Location: Newark
(44.3867°N, 6.6531°E)
Time: 14:50:48
(UTC+00:00)

Envisat - Visible Passes

Search period start: 24 January 2020 00:00
Search period end: 03 February 2020 00:00
Orbit: 764 x 766 km, 98.1° (Epoch: 23 January)

Date Brightness Start Highest point End Pass type
(mag) Time Alt. Az. Time Alt. Az. Time Alt. Az.
24 Jan 5.8 05:12:06 10° NE 05:15:49 20° E 05:19:31 10° SE visible
24 Jan 4.8 18:06:49 10° SSW 18:11:24 34° W 18:16:01 10° NNW visible
25 Jan 3.3 06:13:20 10° NNE 06:18:26 74° ESE 06:23:31 10° S visible
25 Jan 3.3 17:29:25 10° S 17:34:29 74° WSW 17:39:36 10° NNW visible
26 Jan 4.9 05:36:55 10° NNE 05:41:32 34° E 05:46:06 10° SSE visible
26 Jan 5.7 18:33:24 10° SW 18:37:06 20° W 18:40:50 10° NW visible
27 Jan 6.1 05:01:20 10° NE 05:04:24 16° E 05:07:28 10° SE visible
27 Jan 4.3 17:55:14 10° S 18:00:03 43° W 18:04:54 10° NNW visible
28 Jan 3.8 06:02:06 10° NNE 06:07:08 58° E 06:12:07 10° S visible
28 Jan 3.0 17:18:07 10° SSE 17:23:11 88° ENE 17:28:19 10° NNW visible
28 Jan 6.3 19:01:16 10° WSW 19:02:54 11° W 19:04:33 10° WNW visible
29 Jan 5.3 05:25:51 10° NE 05:30:09 27° E 05:34:26 10° SSE visible
29 Jan 5.3 18:21:33 10° SSW 18:25:43 25° W 18:29:54 10° NW visible
30 Jan 6.3 04:50:50 10° ENE 04:52:58 12° E 04:55:06 10° ESE visible
30 Jan 3.9 17:43:45 10° S 17:48:43 54° W 17:53:42 10° NNW visible
31 Jan 4.2 05:50:54 10° NNE 05:55:48 46° E 06:00:40 10° S visible
31 Jan 3.0 17:06:52 10° SSE 17:11:55 71° ENE 17:17:00 10° N visible
31 Jan 6.1 18:48:40 10° WSW 18:51:28 15° W 18:54:17 10° NW visible
01 Feb 5.7 05:14:52 10° NE 05:18:46 22° E 05:22:39 10° SE visible
01 Feb 5.0 18:09:50 10° SSW 18:14:20 31° W 18:18:51 10° NNW visible
02 Feb 3.2 06:16:14 10° NNE 06:21:21 80° ESE 06:26:25 10° S visible
02 Feb 3.4 17:32:21 10° S 17:37:23 68° WSW 17:42:29 10° NNW visible
